Location: ??
(35.5138°N, 139.6953°E)
Time: 09:02:23
(UTC+00:00)

ARGOS - Pass Details

Date: 07 June 2020
Orbit: 820 x 834 km, 98.5° (Epoch: 05 July)

Event Time Altitude Azimuth Distance (km) Brightness Sun altitude
Rises 10:56:04 0° 185° (S) 3,344 6.0 -11.2°
Reaches altitude 10° 10:58:32 10° 193° (SSW) 2,417 5.3 -11.6°
Maximum altitude 11:03:32 39° 262° (W) 1,215 4.4 -12.4°
Drops below altitude 10° 11:08:34 10° 331° (NNW) 2,440 6.8 -13.1°
Sets 11:11:06 0° 339° (NNW) 3,380 7.5 -13.5°
